Showing default

VANGUARD 1, 5

Orbit data source: Space-Track

VANGUARD 1, 5 is a payload satellite owned by NRL (US) in LEO that was launched on Mon, 17 Mar 1958 UTC via a VANGUARD launch vehicle from the Air Force Eastern Test Range (AFETR). Payload-class satellites include a variety of spacecraft equipped with specific instruments for various scientific and technological missions. These include communications satellites like Starlink; space stations such as the ISS; scientific satellites like the Hubble; Earth observation satellites from companies like Planet Labs, Umbra, and HawkEye 360; GPS; miniature CubeSats for education and research; and military/defense satellites.

Loading next visibility...
Identifier
5, 1958-002B
Orbit
LEO
Country
Flag of USUS
Related business
Manufacturer
NRL
Mission
Spacecraft
Bus & Motor
NRL 6", Unknown motor
Mass
2 kg wet, 2 kg dry
Launch date (UTC)
1958-03-17 (68 years ago)
Launch vehicle
VANGUARD
Launch site
Air Force Eastern Test Range (AFETR)
Object type
Payload
Rocket body
Debris
Shape & HBR
SPHERE, 0.1 m
Radar Cross Section
Medium (>0.1 m² and <1 m²)

Expand to show TLE details & history
Last TLE update: 14 hours ago

TLE from 14 hours ago
0 VANGUARD 1
1     5U 58002B   26247.56862957  .00000274  00000-0  36003-3 0  9997
2     5  34.2435  69.3292 1837099 136.4718 239.6461 10.86044898451915
Epoch: 2026-09-04T13:38Z
TLE epoch observation values (Epoch: 2026-09-04T13:38:49.594Z)
Latitude
-0°
Longitude
-119.06802°
Altitude
3,220.935 km
Speed
6.066 km/s
True Right ascension
04h 37m 19s
True Declination
0° 00' 00"
Sunlit
Object was in daylight at epoch
Visualization orbit readout
Latitude
Unknown
Longitude
Unknown
Altitude
Unknown
Speed
Unknown
Apparent Right ascension
Unknown
Apparent Declination
Unknown
Sunlit
N/A
Visualization observer readout
Local Sidereal Time
19:42:03
Azimuth
Unknown
Elevation
Unknown
Doppler factor
Unknown
Orbital elements
Apogee altitude
3,820.874 km
Perigee altitude
655.133 km
Semi-major axis
8,616.141 km
Eccentricity
0.18371
Inclination
34.2435°
RAAN
69.3292°
Arg. of periapsis
136.4718°
True anomaly
223.58462°
Mean anomaly
239.6461°
Eccentric anomaly
231.41792°
Mean motion
2.71378 °/min
Orbital period
132.66 mins
BSTAR
0.00036003
Loading maneuver chart data...
Computing Atmospheric mass density...
Loading historical data...
Loading historical data...
Loading historical data...
Loading historical data...
Loading historical data...
Loading historical data...
Loading historical data...
Other satellites on launch #2 in the year 1958 (1958-03-17 UTC)

Documentation

Showing up to 5 results
|